EXPRESS-AMU1 (41191 NORAD) Tracking and Keplerian Element Data

This shows tracking and keplerian element data for the satellite.

Feedback or suggestion? Click here.




ElementValue
Catalog41191
NameEXPRESS-AMU1
Epoch Orbit3109
Epoch Day160.07361455
Epoch Year2024
RAAN340.6113
Inclination0.018
Eccentricity0.0002537
Argument of Perigee92.2002
Mean Anonmoly246.7478
Mean Motion1.00268973
Decay Rate1.55E-06
L11 41191U 15082A 24160.07361455 .00000155 00000+0 00000+0 0 9995
L22 41191 0.0180 340.6113 0002537 92.2002 246.7478 1.00268973 31094



Live tracking and technical data element details for EXPRESS-AMU1 (NORAD 41191). EXPRESS-AMU1 can be tracked NOW for your location showing map with azimuth and elevation plus other details from your city location.







IsCatalogInMostPopularTable: catalog: 41191, numindb: 639
Update: records affected: 1



GetName: 41191 EXPRESS-AMU1

Hit Count: updated at: Fri, 14 Jun 2024 19:53:17 GMT